Data supplied by UK-AIR on 20/3/2018
All Data GMT hour ending 
Status: R =Ratified P=Provisional,P*=As supplied
,,Aberdeen Union Street Roadside,,,,,,,,,,,,,,,,,,,,,,,
Date,time,"Nitric oxide",status,unit,"Nitrogen dioxide",status,unit,"Nitrogen oxides as nitrogen dioxide",status,unit
 
01-01-2017,01:00,40.42998,R,ugm-3,45.52324,R,ugm-3,107.51501,R,ugm-3
01-01-2017,02:00,17.05059,R,ugm-3,24.56670,R,ugm-3,50.71057,R,ugm-3
01-01-2017,03:00,23.80441,R,ugm-3,37.98847,R,ugm-3,74.48805,R,ugm-3
01-01-2017,04:00,23.20228,R,ugm-3,25.25456,R,ugm-3,60.83089,R,ugm-3
01-01-2017,05:00,21.18321,R,ugm-3,29.54765,R,ugm-3,62.02811,R,ugm-3
01-01-2017,06:00,10.27308,R,ugm-3,17.92825,R,ugm-3,33.68008,R,ugm-3
01-01-2017,07:00,4.46346,R,ugm-3,9.86085,R,ugm-3,16.70473,R,ugm-3
01-01-2017,08:00,4.60503,R,ugm-3,8.66363,R,ugm-3,15.72458,R,ugm-3
01-01-2017,09:00,3.68390,R,ugm-3,11.54528,R,ugm-3,17.19385,R,ugm-3
01-01-2017,10:00,3.79023,R,ugm-3,7.68251,R,ugm-3,13.49412,R,ugm-3
01-01-2017,11:00,8.64317,R,ugm-3,17.70688,R,ugm-3,30.95955,R,ugm-3
01-01-2017,12:00,12.82318,R,ugm-3,21.14603,R,ugm-3,40.80797,R,ugm-3
01-01-2017,13:00,13.07108,R,ugm-3,23.92203,R,ugm-3,43.96407,R,ugm-3
01-01-2017,14:00,15.72783,R,ugm-3,25.28947,R,ugm-3,49.40513,R,ugm-3
01-01-2017,15:00,8.60793,R,ugm-3,19.01216,R,ugm-3,32.21080,R,ugm-3
01-01-2017,16:00,13.60243,R,ugm-3,32.46612,R,ugm-3,53.32289,R,ugm-3
01-01-2017,17:00,10.80411,R,ugm-3,29.24738,R,ugm-3,45.81346,R,ugm-3
01-01-2017,18:00,8.46605,R,ugm-3,18.03296,R,ugm-3,31.01406,R,ugm-3
01-01-2017,19:00,5.49062,R,ugm-3,12.69231,R,ugm-3,21.11113,R,ugm-3
01-01-2017,20:00,12.29183,R,ugm-3,25.55148,R,ugm-3,44.39869,R,ugm-3
01-01-2017,21:00,14.73591,R,ugm-3,27.08196,R,ugm-3,49.67671,R,ugm-3
01-01-2017,22:00,10.02486,R,ugm-3,21.79150,R,ugm-3,37.16274,R,ugm-3
01-01-2017,23:00,10.73302,R,ugm-3,17.71262,R,ugm-3,34.16968,R,ugm-3
01-01-2017,24:00,11.05201,R,ugm-3,15.15561,R,ugm-3,32.10179,R,ugm-3
02-01-2017,01:00,17.67965,R,ugm-3,32.28746,R,ugm-3,59.39588,R,ugm-3
02-01-2017,02:00,7.37487,R,ugm-3,11.56489,R,ugm-3,22.87286,R,ugm-3
02-01-2017,03:00,10.06883,R,ugm-3,21.64759,R,ugm-3,37.08624,R,ugm-3
02-01-2017,04:00,6.77190,R,ugm-3,14.66744,R,ugm-3,25.05088,R,ugm-3
02-01-2017,05:00,4.18344,R,ugm-3,13.19051,R,ugm-3,19.60504,R,ugm-3
02-01-2017,06:00,6.34689,R,ugm-3,17.44296,R,ugm-3,27.17471,R,ugm-3
02-01-2017,07:00,7.12614,R,ugm-3,19.57061,R,ugm-3,30.49720,R,ugm-3
02-01-2017,08:00,9.21817,R,ugm-3,21.97128,R,ugm-3,36.10561,R,ugm-3
02-01-2017,09:00,14.81980,R,ugm-3,22.74967,R,ugm-3,45.47303,R,ugm-3
02-01-2017,10:00,25.31458,R,ugm-3,29.58446,R,ugm-3,68.39961,R,ugm-3
02-01-2017,11:00,41.02120,R,ugm-3,46.07308,R,ugm-3,108.97138,R,ugm-3
02-01-2017,12:00,61.12331,R,ugm-3,56.25714,R,ugm-3,149.97825,R,ugm-3
02-01-2017,13:00,42.82885,R,ugm-3,54.57462,R,ugm-3,120.24461,R,ugm-3
02-01-2017,14:00,44.46032,R,ugm-3,52.12662,R,ugm-3,120.29816,R,ugm-3
02-01-2017,15:00,61.22965,R,ugm-3,71.72353,R,ugm-3,165.60768,R,ugm-3
02-01-2017,16:00,92.25249,R,ugm-3,77.90712,R,ugm-3,219.35897,R,ugm-3
02-01-2017,17:00,78.63852,R,ugm-3,73.29417,R,ugm-3,193.87156,R,ugm-3
02-01-2017,18:00,67.22167,R,ugm-3,62.26383,R,ugm-3,165.33563,R,ugm-3
02-01-2017,19:00,62.36469,R,ugm-3,49.12543,R,ugm-3,144.74995,R,ugm-3
02-01-2017,20:00,54.81291,R,ugm-3,64.95280,R,ugm-3,148.99809,R,ugm-3
02-01-2017,21:00,40.91456,R,ugm-3,46.45463,R,ugm-3,109.18941,R,ugm-3
02-01-2017,22:00,39.81538,R,ugm-3,32.72813,R,ugm-3,93.77753,R,ugm-3
02-01-2017,23:00,44.42446,R,ugm-3,39.43862,R,ugm-3,107.55518,R,ugm-3
02-01-2017,24:00,33.50435,R,ugm-3,42.56795,R,ugm-3,93.94057,R,ugm-3
03-01-2017,01:00,19.88945,R,ugm-3,39.92535,R,ugm-3,70.42208,R,ugm-3
03-01-2017,02:00,14.11195,R,ugm-3,25.23735,R,ugm-3,46.87538,R,ugm-3
03-01-2017,03:00,8.09810,R,ugm-3,13.80060,R,ugm-3,26.21751,R,ugm-3
03-01-2017,04:00,7.03197,R,ugm-3,9.82117,R,ugm-3,20.60336,R,ugm-3
03-01-2017,05:00,7.28080,R,ugm-3,11.56537,R,ugm-3,22.72911,R,ugm-3
03-01-2017,06:00,17.33217,R,ugm-3,18.66457,R,ugm-3,45.24019,R,ugm-3
03-01-2017,07:00,43.79208,R,ugm-3,42.24713,R,ugm-3,109.39404,R,ugm-3
03-01-2017,08:00,55.65453,R,ugm-3,47.82302,R,ugm-3,133.15877,R,ugm-3
03-01-2017,09:00,45.17752,R,ugm-3,41.64899,R,ugm-3,110.92022,R,ugm-3
03-01-2017,10:00,83.85504,R,ugm-3,64.75773,R,ugm-3,193.33367,R,ugm-3
03-01-2017,11:00,74.97583,R,ugm-3,58.80459,R,ugm-3,173.76593,R,ugm-3
03-01-2017,12:00,62.47445,R,ugm-3,58.13283,R,ugm-3,153.92565,R,ugm-3
03-01-2017,13:00,49.86581,R,ugm-3,49.99466,R,ugm-3,126.45450,R,ugm-3
03-01-2017,14:00,51.99651,R,ugm-3,54.41302,R,ugm-3,134.13988,R,ugm-3
03-01-2017,15:00,34.02510,R,ugm-3,38.52731,R,ugm-3,90.69840,R,ugm-3
03-01-2017,16:00,41.58997,R,ugm-3,43.98846,R,ugm-3,107.75886,R,ugm-3
03-01-2017,17:00,34.77098,R,ugm-3,37.87419,R,ugm-3,91.18896,R,ugm-3
03-01-2017,18:00,22.09155,R,ugm-3,36.54883,R,ugm-3,70.42208,R,ugm-3
03-01-2017,19:00,17.22553,R,ugm-3,35.17996,R,ugm-3,61.59206,R,ugm-3
03-01-2017,20:00,18.21994,R,ugm-3,23.24453,R,ugm-3,51.18137,R,ugm-3
03-01-2017,21:00,12.99905,R,ugm-3,15.60648,R,ugm-3,35.53808,R,ugm-3
03-01-2017,22:00,15.30780,R,ugm-3,20.84195,R,ugm-3,44.31358,R,ugm-3
03-01-2017,23:00,16.65738,R,ugm-3,9.12502,R,ugm-3,34.66598,R,ugm-3
03-01-2017,24:00,9.76698,R,ugm-3,8.95241,R,ugm-3,23.92824,R,ugm-3
04-01-2017,01:00,5.35591,R,ugm-3,7.73160,R,ugm-3,15.94388,R,ugm-3
04-01-2017,02:00,3.36522,R,ugm-3,5.90580,R,ugm-3,11.06573,R,ugm-3
04-01-2017,03:00,5.15447,R,ugm-3,5.80157,R,ugm-3,13.70498,R,ugm-3
04-01-2017,04:00,2.66610,R,ugm-3,4.21180,R,ugm-3,8.29977,R,ugm-3
04-01-2017,05:00,3.02158,R,ugm-3,4.97680,R,ugm-3,9.60983,R,ugm-3
04-01-2017,06:00,22.46637,R,ugm-3,30.47330,R,ugm-3,64.92125,R,ugm-3
04-01-2017,07:00,33.13078,R,ugm-3,41.09484,R,ugm-3,91.89467,R,ugm-3
04-01-2017,08:00,52.11344,R,ugm-3,49.77377,R,ugm-3,129.67993,R,ugm-3
04-01-2017,09:00,60.21840,R,ugm-3,58.20359,R,ugm-3,150.53718,R,ugm-3
04-01-2017,10:00,85.27977,R,ugm-3,70.22891,R,ugm-3,200.98941,R,ugm-3
04-01-2017,11:00,81.19175,R,ugm-3,73.98554,R,ugm-3,198.47782,R,ugm-3
04-01-2017,12:00,72.73131,R,ugm-3,64.35276,R,ugm-3,175.87254,R,ugm-3
04-01-2017,13:00,88.47910,R,ugm-3,85.52557,R,ugm-3,221.19162,R,ugm-3
04-01-2017,14:00,97.89933,R,ugm-3,72.66544,R,ugm-3,222.77565,R,ugm-3
04-01-2017,15:00,79.27215,R,ugm-3,68.24708,R,ugm-3,189.79602,R,ugm-3
04-01-2017,16:00,104.03729,R,ugm-3,74.46574,R,ugm-3,233.98736,R,ugm-3
04-01-2017,17:00,169.17317,R,ugm-3,87.49066,R,ugm-3,346.88590,R,ugm-3
04-01-2017,18:00,80.69407,R,ugm-3,69.83494,R,ugm-3,193.56413,R,ugm-3
04-01-2017,19:00,92.03390,R,ugm-3,71.39410,R,ugm-3,212.51078,R,ugm-3
04-01-2017,20:00,44.96828,R,ugm-3,47.78859,R,ugm-3,116.73900,R,ugm-3
04-01-2017,21:00,25.52350,R,ugm-3,39.05468,R,ugm-3,78.19017,R,ugm-3
04-01-2017,22:00,21.04445,R,ugm-3,32.92703,R,ugm-3,65.19473,R,ugm-3
04-01-2017,23:00,25.06138,R,ugm-3,34.57609,R,ugm-3,73.00299,R,ugm-3
04-01-2017,24:00,18.84047,R,ugm-3,19.76186,R,ugm-3,48.65018,R,ugm-3
05-01-2017,01:00,12.56031,R,ugm-3,24.67571,R,ugm-3,43.93459,R,ugm-3
05-01-2017,02:00,13.17648,R,ugm-3,23.58495,R,ugm-3,43.78860,R,ugm-3
05-01-2017,03:00,7.42954,R,ugm-3,18.39490,R,ugm-3,29.78671,R,ugm-3
05-01-2017,04:00,7.32290,R,ugm-3,20.68560,R,ugm-3,31.91389,R,ugm-3
05-01-2017,05:00,7.03851,R,ugm-3,14.84865,R,ugm-3,25.64089,R,ugm-3
05-01-2017,06:00,47.20781,R,ugm-3,48.83473,R,ugm-3,121.21903,R,ugm-3
05-01-2017,07:00,121.43214,R,ugm-3,80.57649,R,ugm-3,266.76984,R,ugm-3
05-01-2017,08:00,141.44569,R,ugm-3,106.02470,R,ugm-3,322.90507,R,ugm-3
05-01-2017,09:00,129.92812,R,ugm-3,93.13493,R,ugm-3,292.35527,R,ugm-3
05-01-2017,10:00,113.32718,R,ugm-3,84.38380,R,ugm-3,258.14973,R,ugm-3
05-01-2017,11:00,133.98060,R,ugm-3,94.66779,R,ugm-3,300.10185,R,ugm-3
05-01-2017,12:00,66.97253,R,ugm-3,77.50215,R,ugm-3,180.19193,R,ugm-3
05-01-2017,13:00,40.59587,R,ugm-3,44.46180,R,ugm-3,106.70794,R,ugm-3
05-01-2017,14:00,31.46002,R,ugm-3,37.57537,R,ugm-3,85.81340,R,ugm-3
05-01-2017,15:00,24.10158,R,ugm-3,40.45703,R,ugm-3,77.41226,R,ugm-3
05-01-2017,16:00,33.41517,R,ugm-3,47.12496,R,ugm-3,98.36083,R,ugm-3
05-01-2017,17:00,24.45706,R,ugm-3,41.33008,R,ugm-3,78.83038,R,ugm-3
05-01-2017,18:00,23.46171,R,ugm-3,44.71186,R,ugm-3,80.68598,R,ugm-3
05-01-2017,19:00,20.19129,R,ugm-3,36.68749,R,ugm-3,67.64704,R,ugm-3
05-01-2017,20:00,12.51291,R,ugm-3,25.43864,R,ugm-3,44.62484,R,ugm-3
05-01-2017,21:00,8.85146,R,ugm-3,24.61531,R,ugm-3,38.18737,R,ugm-3
05-01-2017,22:00,7.99831,R,ugm-3,17.63182,R,ugm-3,29.89572,R,ugm-3
05-01-2017,23:00,6.43420,R,ugm-3,17.30239,R,ugm-3,27.16802,R,ugm-3
05-01-2017,24:00,6.18536,R,ugm-3,18.82952,R,ugm-3,28.31361,R,ugm-3
06-01-2017,01:00,4.73974,R,ugm-3,18.67748,R,ugm-3,25.94498,R,ugm-3
06-01-2017,02:00,4.59755,R,ugm-3,15.69780,R,ugm-3,22.74728,R,ugm-3
06-01-2017,03:00,4.51460,R,ugm-3,17.82354,R,ugm-3,24.74584,R,ugm-3
06-01-2017,04:00,2.20398,R,ugm-3,13.24502,R,ugm-3,16.62441,R,ugm-3
06-01-2017,05:00,3.09268,R,ugm-3,13.95360,R,ugm-3,18.69564,R,ugm-3
06-01-2017,06:00,10.09565,R,ugm-3,18.53213,R,ugm-3,34.01190,R,ugm-3
06-01-2017,07:00,30.10920,R,ugm-3,35.21104,R,ugm-3,81.37783,R,ugm-3
06-01-2017,08:00,55.56160,R,ugm-3,51.56291,R,ugm-3,136.75618,R,ugm-3
06-01-2017,09:00,69.92301,R,ugm-3,79.90616,R,ugm-3,187.11996,R,ugm-3
06-01-2017,10:00,58.44099,R,ugm-3,45.29469,R,ugm-3,134.90297,R,ugm-3
06-01-2017,11:00,82.57812,R,ugm-3,58.43070,R,ugm-3,185.04872,R,ugm-3
06-01-2017,12:00,98.43255,R,ugm-3,58.15817,R,ugm-3,209.08598,R,ugm-3
06-01-2017,13:00,114.03814,R,ugm-3,67.47874,R,ugm-3,242.33479,R,ugm-3
06-01-2017,14:00,195.97640,R,ugm-3,77.01733,R,ugm-3,377.51029,R,ugm-3
06-01-2017,15:00,178.20238,R,ugm-3,91.73402,R,ugm-3,364.97385,R,ugm-3
06-01-2017,16:00,168.24892,R,ugm-3,77.28986,R,ugm-3,335.26794,R,ugm-3
06-01-2017,17:00,252.78218,R,ugm-3,82.74049,R,ugm-3,470.33443,R,ugm-3
06-01-2017,18:00,160.81938,R,ugm-3,72.05726,R,ugm-3,318.64354,R,ugm-3
06-01-2017,19:00,132.98526,R,ugm-3,69.27744,R,ugm-3,273.18533,R,ugm-3
06-01-2017,20:00,174.43428,R,ugm-3,72.00276,R,ugm-3,339.46493,R,ugm-3
06-01-2017,21:00,114.74911,R,ugm-3,55.21483,R,ugm-3,231.16101,R,ugm-3
06-01-2017,22:00,149.76394,R,ugm-3,78.70703,R,ugm-3,308.34186,R,ugm-3
06-01-2017,23:00,155.98484,R,ugm-3,66.00707,R,ugm-3,305.18049,R,ugm-3
06-01-2017,24:00,141.30350,R,ugm-3,58.37619,R,ugm-3,275.03854,R,ugm-3
07-01-2017,01:00,197.09502,R,ugm-3,68.98069,R,ugm-3,371.18884,R,ugm-3
07-01-2017,02:00,112.32810,R,ugm-3,67.16509,R,ugm-3,239.39910,R,ugm-3
07-01-2017,03:00,83.92645,R,ugm-3,57.67096,R,ugm-3,186.35639,R,ugm-3
07-01-2017,04:00,102.14670,R,ugm-3,56.69080,R,ugm-3,213.31356,R,ugm-3
07-01-2017,05:00,57.03996,R,ugm-3,47.27031,R,ugm-3,134.73037,R,ugm-3
07-01-2017,06:00,56.82699,R,ugm-3,46.78023,R,ugm-3,133.91373,R,ugm-3
07-01-2017,07:00,119.58520,R,ugm-3,58.92413,R,ugm-3,242.28554,R,ugm-3
07-01-2017,08:00,119.23003,R,ugm-3,67.74697,R,ugm-3,250.56380,R,ugm-3
07-01-2017,09:00,89.18320,R,ugm-3,54.62148,R,ugm-3,191.36714,R,ugm-3
07-01-2017,10:00,167.46219,R,ugm-3,69.65182,R,ugm-3,326.42359,R,ugm-3
07-01-2017,11:00,119.47856,R,ugm-3,56.31022,R,ugm-3,239.50811,R,ugm-3
07-01-2017,12:00,119.08815,R,ugm-3,58.86914,R,ugm-3,241.46843,R,ugm-3
07-01-2017,13:00,117.38309,R,ugm-3,56.03768,R,ugm-3,236.02258,R,ugm-3
07-01-2017,14:00,115.28794,R,ugm-3,58.10653,R,ugm-3,234.87891,R,ugm-3
07-01-2017,15:00,148.67348,R,ugm-3,80.32643,R,ugm-3,308.28926,R,ugm-3
07-01-2017,16:00,105.16548,R,ugm-3,74.11750,R,ugm-3,235.36898,R,ugm-3
07-01-2017,17:00,106.76358,R,ugm-3,58.27101,R,ugm-3,221.97288,R,ugm-3
07-01-2017,18:00,106.55091,R,ugm-3,55.32958,R,ugm-3,218.70537,R,ugm-3
07-01-2017,19:00,87.47814,R,ugm-3,56.63678,R,ugm-3,190.76805,R,ugm-3
07-01-2017,20:00,55.29967,R,ugm-3,49.33963,R,ugm-3,134.13128,R,ugm-3
07-01-2017,21:00,44.82204,R,ugm-3,46.67122,R,ugm-3,115.39738,R,ugm-3
07-01-2017,22:00,44.71539,R,ugm-3,43.40371,R,ugm-3,111.96636,R,ugm-3
07-01-2017,23:00,53.48859,R,ugm-3,53.96788,R,ugm-3,135.98258,R,ugm-3
07-01-2017,24:00,43.25948,R,ugm-3,36.27008,R,ugm-3,102.60037,R,ugm-3
08-01-2017,01:00,71.22291,R,ugm-3,44.59313,R,ugm-3,153.80006,R,ugm-3
08-01-2017,02:00,62.41448,R,ugm-3,52.94884,R,ugm-3,148.64970,R,ugm-3
08-01-2017,03:00,37.29271,R,ugm-3,38.85339,R,ugm-3,96.03475,R,ugm-3
08-01-2017,04:00,76.85863,R,ugm-3,57.02788,R,ugm-3,174.87613,R,ugm-3
08-01-2017,05:00,39.13965,R,ugm-3,45.70684,R,ugm-3,105.72013,R,ugm-3
08-01-2017,06:00,30.04683,R,ugm-3,41.03986,R,ugm-3,87.11103,R,ugm-3
08-01-2017,07:00,23.29894,R,ugm-3,37.51225,R,ugm-3,73.23680,R,ugm-3
08-01-2017,08:00,34.84208,R,ugm-3,40.21701,R,ugm-3,93.64078,R,ugm-3
08-01-2017,09:00,54.34081,R,ugm-3,45.74031,R,ugm-3,129.06172,R,ugm-3
08-01-2017,10:00,51.28648,R,ugm-3,40.79315,R,ugm-3,119.43132,R,ugm-3
08-01-2017,11:00,43.68575,R,ugm-3,41.78334,R,ugm-3,108.76722,R,ugm-3
08-01-2017,12:00,104.27740,R,ugm-3,60.36472,R,ugm-3,220.25450,R,ugm-3
08-01-2017,13:00,122.63953,R,ugm-3,63.93057,R,ugm-3,251.97522,R,ugm-3
08-01-2017,14:00,174.13961,R,ugm-3,81.70726,R,ugm-3,348.71760,R,ugm-3
08-01-2017,15:00,104.02856,R,ugm-3,57.53565,R,ugm-3,217.04389,R,ugm-3
08-01-2017,16:00,113.08583,R,ugm-3,68.62289,R,ugm-3,242.01875,R,ugm-3
08-01-2017,17:00,93.65789,R,ugm-3,67.39793,R,ugm-3,211.00469,R,ugm-3
08-01-2017,18:00,74.72730,R,ugm-3,54.14718,R,ugm-3,168.72744,R,ugm-3
08-01-2017,19:00,66.59428,R,ugm-3,55.24591,R,ugm-3,157.35572,R,ugm-3
08-01-2017,20:00,37.50569,R,ugm-3,45.70923,R,ugm-3,103.21715,R,ugm-3
08-01-2017,21:00,14.95232,R,ugm-3,24.41067,R,ugm-3,47.33724,R,ugm-3
08-01-2017,22:00,9.69589,R,ugm-3,18.16014,R,ugm-3,33.02696,R,ugm-3
08-01-2017,23:00,13.95822,R,ugm-3,21.85414,R,ugm-3,43.25645,R,ugm-3
08-01-2017,24:00,3.80021,R,ugm-3,8.37436,R,ugm-3,14.20127,R,ugm-3
09-01-2017,01:00,2.50749,R,ugm-3,9.05760,R,ugm-3,12.90236,R,ugm-3
09-01-2017,02:00,1.84517,R,ugm-3,5.57876,R,ugm-3,8.40799,R,ugm-3
09-01-2017,03:00,2.69697,R,ugm-3,6.51971,R,ugm-3,10.65502,R,ugm-3
09-01-2017,04:00,1.52576,R,ugm-3,3.91202,R,ugm-3,6.25148,R,ugm-3
09-01-2017,05:00,0.92300,R,ugm-3,4.51015,R,ugm-3,5.92540,R,ugm-3
09-01-2017,06:00,3.26450,R,ugm-3,8.80276,R,ugm-3,13.80825,R,ugm-3
09-01-2017,07:00,7.62911,R,ugm-3,12.71095,R,ugm-3,24.40876,R,ugm-3
09-01-2017,08:00,16.60718,R,ugm-3,24.65834,R,ugm-3,50.12232,R,ugm-3
09-01-2017,09:00,44.14413,R,ugm-3,52.50912,R,ugm-3,120.19584,R,ugm-3
09-01-2017,10:00,121.92888,R,ugm-3,77.19424,R,ugm-3,264.14924,R,ugm-3
09-01-2017,11:00,43.11511,R,ugm-3,67.13401,R,ugm-3,133.24292,R,ugm-3
09-01-2017,12:00,77.03949,R,ugm-3,55.61837,R,ugm-3,173.74393,R,ugm-3
09-01-2017,13:00,50.24748,R,ugm-3,63.86316,R,ugm-3,140.90822,R,ugm-3
09-01-2017,14:00,32.96645,R,ugm-3,43.60883,R,ugm-3,94.15668,R,ugm-3
09-01-2017,15:00,25.19484,R,ugm-3,35.79100,R,ugm-3,74.42255,R,ugm-3
09-01-2017,16:00,43.54075,R,ugm-3,47.18281,R,ugm-3,113.94436,R,ugm-3
09-01-2017,17:00,39.45990,R,ugm-3,50.83043,R,ugm-3,111.33475,R,ugm-3
09-01-2017,18:00,47.65746,R,ugm-3,57.07091,R,ugm-3,130.14467,R,ugm-3
09-01-2017,19:00,21.50439,R,ugm-3,28.45704,R,ugm-3,61.42998,R,ugm-3
09-01-2017,20:00,15.61370,R,ugm-3,24.11615,R,ugm-3,48.05682,R,ugm-3
09-01-2017,21:00,11.63949,R,ugm-3,21.62033,R,ugm-3,39.46731,R,ugm-3
09-01-2017,22:00,8.55242,R,ugm-3,22.11328,R,ugm-3,35.22682,R,ugm-3
09-01-2017,23:00,13.52011,R,ugm-3,19.33490,R,ugm-3,40.06544,R,ugm-3
09-01-2017,24:00,15.36518,R,ugm-3,19.06093,R,ugm-3,42.62054,R,ugm-3
10-01-2017,01:00,18.26297,R,ugm-3,31.81635,R,ugm-3,59.81918,R,ugm-3
10-01-2017,02:00,15.61370,R,ugm-3,19.43865,R,ugm-3,43.37933,R,ugm-3
10-01-2017,03:00,14.54913,R,ugm-3,21.03511,R,ugm-3,43.34347,R,ugm-3
10-01-2017,04:00,8.55211,R,ugm-3,10.73104,R,ugm-3,23.84409,R,ugm-3
10-01-2017,05:00,8.09092,R,ugm-3,10.67797,R,ugm-3,23.08388,R,ugm-3
10-01-2017,06:00,28.63707,R,ugm-3,30.77356,R,ugm-3,74.68313,R,ugm-3
10-01-2017,07:00,75.58451,R,ugm-3,67.36399,R,ugm-3,183.25862,R,ugm-3
10-01-2017,08:00,90.59514,R,ugm-3,87.31184,R,ugm-3,226.22245,R,ugm-3
10-01-2017,09:00,112.98636,R,ugm-3,77.58391,R,ugm-3,250.82724,R,ugm-3
10-01-2017,10:00,219.08856,R,ugm-3,103.20567,R,ugm-3,439.13678,R,ugm-3
10-01-2017,11:00,146.34290,R,ugm-3,92.05006,R,ugm-3,316.43938,R,ugm-3
10-01-2017,12:00,200.31669,R,ugm-3,87.77658,R,ugm-3,394.92456,R,ugm-3
10-01-2017,13:00,146.44955,R,ugm-3,84.01087,R,ugm-3,308.56371,R,ugm-3
10-01-2017,14:00,155.88849,R,ugm-3,87.51600,R,ugm-3,326.54168,R,ugm-3
10-01-2017,15:00,77.67810,R,ugm-3,73.17082,R,ugm-3,192.27558,R,ugm-3
10-01-2017,16:00,66.99685,R,ugm-3,64.40009,R,ugm-3,167.12716,R,ugm-3
10-01-2017,17:00,118.38031,R,ugm-3,84.19494,R,ugm-3,265.70888,R,ugm-3
10-01-2017,18:00,220.89839,R,ugm-3,104.17818,R,ugm-3,442.88432,R,ugm-3
10-01-2017,19:00,112.98636,R,ugm-3,100.23269,R,ugm-3,273.47603,R,ugm-3
10-01-2017,20:00,58.69357,R,ugm-3,72.40629,R,ugm-3,162.40185,R,ugm-3
10-01-2017,21:00,25.19484,R,ugm-3,48.70707,R,ugm-3,87.33862,R,ugm-3
10-01-2017,22:00,10.92978,R,ugm-3,25.33537,R,ugm-3,42.09413,R,ugm-3
10-01-2017,23:00,6.56454,R,ugm-3,14.05066,R,ugm-3,24.11615,R,ugm-3
10-01-2017,24:00,5.28762,R,ugm-3,9.59932,R,ugm-3,17.70688,R,ugm-3
11-01-2017,01:00,3.45128,R,ugm-3,7.15403,R,ugm-3,12.44591,R,ugm-3
11-01-2017,02:00,7.56363,R,ugm-3,8.08414,R,ugm-3,19.68154,R,ugm-3
11-01-2017,03:00,7.44545,R,ugm-3,6.70905,R,ugm-3,18.12524,R,ugm-3
11-01-2017,04:00,3.68733,R,ugm-3,5.41668,R,ugm-3,11.07051,R,ugm-3
11-01-2017,05:00,4.43197,R,ugm-3,6.66315,R,ugm-3,13.45874,R,ugm-3
11-01-2017,06:00,15.06832,R,ugm-3,17.05281,R,ugm-3,40.15724,R,ugm-3
11-01-2017,07:00,52.33078,R,ugm-3,47.12543,R,ugm-3,127.36485,R,ugm-3
11-01-2017,08:00,78.88642,R,ugm-3,75.54471,R,ugm-3,196.50220,R,ugm-3
11-01-2017,09:00,103.31448,R,ugm-3,67.01257,R,ugm-3,225.42590,R,ugm-3
11-01-2017,10:00,83.81451,R,ugm-3,62.01855,R,ugm-3,190.53233,R,ugm-3
11-01-2017,11:00,72.96518,R,ugm-3,64.11035,R,ugm-3,175.98873,R,ugm-3
11-01-2017,12:00,67.39910,R,ugm-3,67.21816,R,ugm-3,170.56201,R,ugm-3
11-01-2017,13:00,75.48254,R,ugm-3,60.52202,R,ugm-3,176.26030,R,ugm-3
11-01-2017,14:00,90.37343,R,ugm-3,54.23993,R,ugm-3,192.81060,R,ugm-3
11-01-2017,15:00,80.09163,R,ugm-3,60.94373,R,ugm-3,183.74918,R,ugm-3
11-01-2017,16:00,83.03463,R,ugm-3,66.85048,R,ugm-3,194.16848,R,ugm-3
11-01-2017,17:00,87.39519,R,ugm-3,60.97815,R,ugm-3,194.98224,R,ugm-3
11-01-2017,18:00,85.72911,R,ugm-3,71.34725,R,ugm-3,202.79672,R,ugm-3
11-01-2017,19:00,78.56712,R,ugm-3,50.74532,R,ugm-3,171.21322,R,ugm-3
11-01-2017,20:00,41.55255,R,ugm-3,42.97627,R,ugm-3,106.68929,R,ugm-3
11-01-2017,21:00,31.73162,R,ugm-3,32.42022,R,ugm-3,81.07470,R,ugm-3
11-01-2017,22:00,25.70436,R,ugm-3,29.72360,R,ugm-3,69.13640,R,ugm-3
11-01-2017,23:00,36.55369,R,ugm-3,37.45440,R,ugm-3,93.50260,R,ugm-3
11-01-2017,24:00,20.20938,R,ugm-3,24.79891,R,ugm-3,55.78619,R,ugm-3
12-01-2017,01:00,18.43593,R,ugm-3,21.25234,R,ugm-3,49.52036,R,ugm-3
12-01-2017,02:00,14.08701,R,ugm-3,19.02874,R,ugm-3,40.62851,R,ugm-3
12-01-2017,03:00,14.14625,R,ugm-3,16.20892,R,ugm-3,37.89953,R,ugm-3
12-01-2017,04:00,8.72175,R,ugm-3,9.56202,R,ugm-3,22.93518,R,ugm-3
12-01-2017,05:00,6.63002,R,ugm-3,10.76259,R,ugm-3,20.92849,R,ugm-3
12-01-2017,06:00,16.45095,R,ugm-3,19.56153,R,ugm-3,44.78597,R,ugm-3
12-01-2017,07:00,69.98725,R,ugm-3,54.64108,R,ugm-3,161.95337,R,ugm-3
12-01-2017,08:00,123.87809,R,ugm-3,79.09239,R,ugm-3,269.03616,R,ugm-3
12-01-2017,09:00,187.34165,R,ugm-3,106.70459,R,ugm-3,393.95779,R,ugm-3
12-01-2017,10:00,116.78688,R,ugm-3,85.79093,R,ugm-3,264.86165,R,ugm-3
12-01-2017,11:00,137.03181,R,ugm-3,91.78088,R,ugm-3,301.89338,R,ugm-3
12-01-2017,12:00,120.04888,R,ugm-3,89.30228,R,ugm-3,273.37466,R,ugm-3
12-01-2017,13:00,118.55961,R,ugm-3,74.07208,R,ugm-3,255.86094,R,ugm-3
12-01-2017,14:00,129.19627,R,ugm-3,78.52916,R,ugm-3,276.62735,R,ugm-3
12-01-2017,15:00,125.15439,R,ugm-3,88.08832,R,ugm-3,279.98904,R,ugm-3
12-01-2017,16:00,150.36264,R,ugm-3,81.80480,R,ugm-3,312.35763,R,ugm-3
12-01-2017,17:00,164.43811,R,ugm-3,92.48324,R,ugm-3,344.61816,R,ugm-3
12-01-2017,18:00,122.63703,R,ugm-3,93.19469,R,ugm-3,281.23552,R,ugm-3
12-01-2017,19:00,107.53348,R,ugm-3,82.03238,R,ugm-3,246.91475,R,ugm-3
12-01-2017,20:00,100.08803,R,ugm-3,90.24992,R,ugm-3,243.71609,R,ugm-3
12-01-2017,21:00,35.77350,R,ugm-3,41.17087,R,ugm-3,96.02280,R,ugm-3
12-01-2017,22:00,36.80190,R,ugm-3,35.03939,R,ugm-3,91.46818,R,ugm-3
12-01-2017,23:00,34.42642,R,ugm-3,40.25382,R,ugm-3,93.04026,R,ugm-3
12-01-2017,24:00,26.48455,R,ugm-3,33.12928,R,ugm-3,73.73835,R,ugm-3
13-01-2017,01:00,27.27637,R,ugm-3,24.48255,R,ugm-3,66.30574,R,ugm-3
13-01-2017,02:00,14.27618,R,ugm-3,16.31873,R,ugm-3,38.20856,R,ugm-3
13-01-2017,03:00,8.93441,R,ugm-3,13.16948,R,ugm-3,26.86871,R,ugm-3
13-01-2017,04:00,4.43197,R,ugm-3,5.60936,R,ugm-3,12.40495,R,ugm-3
13-01-2017,05:00,5.07028,R,ugm-3,4.68515,R,ugm-3,12.45946,R,ugm-3
13-01-2017,06:00,9.82062,R,ugm-3,14.68226,R,ugm-3,29.74033,R,ugm-3
13-01-2017,07:00,25.45646,R,ugm-3,35.39894,R,ugm-3,74.43163,R,ugm-3
13-01-2017,08:00,51.44427,R,ugm-3,43.05994,R,ugm-3,121.94004,R,ugm-3
13-01-2017,09:00,63.07347,R,ugm-3,60.38623,R,ugm-3,157.09753,R,ugm-3
13-01-2017,10:00,62.25804,R,ugm-3,52.31931,R,ugm-3,147.78031,R,ugm-3
13-01-2017,11:00,64.45610,R,ugm-3,61.78714,R,ugm-3,160.61844,R,ugm-3
13-01-2017,12:00,68.21453,R,ugm-3,51.41995,R,ugm-3,156.01410,R,ugm-3
13-01-2017,13:00,83.35394,R,ugm-3,65.91049,R,ugm-3,193.71808,R,ugm-3
13-01-2017,14:00,96.32991,R,ugm-3,84.85476,R,ugm-3,232.55857,R,ugm-3
13-01-2017,15:00,112.28413,R,ugm-3,80.11032,R,ugm-3,252.27692,R,ugm-3
13-01-2017,16:00,89.31011,R,ugm-3,69.72401,R,ugm-3,206.66427,R,ugm-3
13-01-2017,17:00,68.25007,R,ugm-3,67.83398,R,ugm-3,172.48264,R,ugm-3
13-01-2017,18:00,74.52555,R,ugm-3,72.94562,R,ugm-3,187.21654,R,ugm-3
13-01-2017,19:00,138.62679,R,ugm-3,77.90999,R,ugm-3,290.46811,R,ugm-3
13-01-2017,20:00,107.39160,R,ugm-3,94.97905,R,ugm-3,259.64387,R,ugm-3
13-01-2017,21:00,78.07100,R,ugm-3,65.07186,R,ugm-3,184.77906,R,ugm-3
13-01-2017,22:00,60.45008,R,ugm-3,61.59158,R,ugm-3,154.28042,R,ugm-3
13-01-2017,23:00,48.78533,R,ugm-3,57.64658,R,ugm-3,132.44971,R,ugm-3
13-01-2017,24:00,65.13026,R,ugm-3,57.82826,R,ugm-3,157.69328,R,ugm-3
14-01-2017,01:00,40.90188,R,ugm-3,48.05794,R,ugm-3,110.77328,R,ugm-3
14-01-2017,02:00,29.09410,R,ugm-3,32.31743,R,ugm-3,76.92776,R,ugm-3
14-01-2017,03:00,29.47245,R,ugm-3,32.09892,R,ugm-3,77.28938,R,ugm-3
14-01-2017,04:00,15.05491,R,ugm-3,21.18954,R,ugm-3,44.27342,R,ugm-3
14-01-2017,05:00,10.73333,R,ugm-3,22.78218,R,ugm-3,39.23972,R,ugm-3
14-01-2017,06:00,8.99740,R,ugm-3,24.57754,R,ugm-3,38.37336,R,ugm-3
14-01-2017,07:00,16.18808,R,ugm-3,20.20939,R,ugm-3,45.03077,R,ugm-3
14-01-2017,08:00,14.31121,R,ugm-3,26.87588,R,ugm-3,48.81943,R,ugm-3
14-01-2017,09:00,28.97634,R,ugm-3,39.35399,R,ugm-3,83.78376,R,ugm-3
14-01-2017,10:00,70.74031,R,ugm-3,66.78546,R,ugm-3,175.25242,R,ugm-3
14-01-2017,11:00,85.08706,R,ugm-3,71.84976,R,ugm-3,202.31477,R,ugm-3
14-01-2017,12:00,59.61751,R,ugm-3,41.35351,R,ugm-3,132.76575,R,ugm-3
14-01-2017,13:00,56.21675,R,ugm-3,46.40538,R,ugm-3,132.60319,R,ugm-3
14-01-2017,14:00,68.43810,R,ugm-3,48.44936,R,ugm-3,153.38633,R,ugm-3
14-01-2017,15:00,101.80681,R,ugm-3,80.90688,R,ugm-3,237.00848,R,ugm-3
14-01-2017,16:00,143.18131,R,ugm-3,98.65201,R,ugm-3,318.19362,R,ugm-3
14-01-2017,17:00,166.91493,R,ugm-3,106.37134,R,ugm-3,362.30400,R,ugm-3
14-01-2017,18:00,181.93430,R,ugm-3,104.17961,R,ugm-3,383.14164,R,ugm-3
14-01-2017,19:00,156.57107,R,ugm-3,98.30967,R,ugm-3,338.38197,R,ugm-3
14-01-2017,20:00,105.98651,R,ugm-3,84.99772,R,ugm-3,247.50810,R,ugm-3
14-01-2017,21:00,72.90094,R,ugm-3,66.34176,R,ugm-3,178.12164,R,ugm-3
14-01-2017,22:00,44.24360,R,ugm-3,57.29468,R,ugm-3,125.13392,R,ugm-3
14-01-2017,23:00,60.39645,R,ugm-3,75.39362,R,ugm-3,168.00022,R,ugm-3
14-01-2017,24:00,37.76138,R,ugm-3,47.42474,R,ugm-3,105.32472,R,ugm-3
15-01-2017,01:00,14.92478,R,ugm-3,31.55179,R,ugm-3,54.43612,R,ugm-3
15-01-2017,02:00,17.23977,R,ugm-3,28.00283,R,ugm-3,54.43676,R,ugm-3
15-01-2017,03:00,15.44469,R,ugm-3,24.66264,R,ugm-3,48.34418,R,ugm-3
15-01-2017,04:00,11.72493,R,ugm-3,23.71452,R,ugm-3,41.69250,R,ugm-3
15-01-2017,05:00,6.23463,R,ugm-3,15.47786,R,ugm-3,25.03749,R,ugm-3
15-01-2017,06:00,6.27018,R,ugm-3,18.34327,R,ugm-3,27.95740,R,ugm-3
15-01-2017,07:00,17.46345,R,ugm-3,42.65688,R,ugm-3,69.43379,R,ugm-3
15-01-2017,08:00,25.36291,R,ugm-3,42.06305,R,ugm-3,80.95230,R,ugm-3
15-01-2017,09:00,31.10174,R,ugm-3,52.40537,R,ugm-3,100.09403,R,ugm-3
15-01-2017,10:00,32.62500,R,ugm-3,47.36689,R,ugm-3,97.39119,R,ugm-3